Weather Roundup
Issued by NWS Chicago, IL

Home | Current Version | Previous Version | Text Only | Print | Product List | Glossary Off
Versions: 1 2 3 4 5 6 7 8 9 10 11 12 13 14 15 16 17 18 19 20 21 22 23 24 25 26 27 28 29 30 31 32 33 34 35 36 37 38 39 40 41 42 43 44 45 46 47 48 49 50

000
NZUS59 KLOT 202203
HRRLOT

CHICAGO AREA WEATHER ROUNDUP
NATIONAL WEATHER SERVICE CHICAGO/ROMEOVILLE IL
400 PM CST FRI JAN 20 2017

NOTE: "FAIR" INDICATES FEW OR NO CLOUDS BELOW 12,000 FEET WITH NO
SIGNIFICANT WEATHER AND/OR OBSTRUCTIONS TO VISIBILITY.

* THESE STATIONS ARE NOT UNDER NWS QUALITY CONTROL. THEY ALSO MAY NOT
  REPORT WEATHER SUCH AS PRECIPITATION OR FOG.

ILZ005-006-012>014-019>023-202300-
NORTHEAST ILLINOIS

CITY           SKY/WX    TMP DP  RH WIND       PRES   REMARKS
OHARE          CLOUDY    41  40  96 E6        29.63R FOG
MIDWAY         CLOUDY    42  40  92 SE6       29.64R FOG
AURORA         CLOUDY    43  40  89 SE6       29.64R FOG
LANSING*       CLOUDY    44  44 100 CALM      29.65S
JOLIET*        CLOUDY    45  44  95 SE3       29.64R
WAUKEGAN       FOG       37  37 100 E5        29.64R VSB 1/16
DUPAGE AIRPORT FOG       41  39  93 SE6       29.62R VSB 3/4
WHEELING       FOG       39  38  96 E5        29.65R VSB 1
KANKAKEE*      CLOUDY    47  47  97 CALM      29.65R
MORRIS*        CLOUDY    43  42  95 CALM      29.63R FOG
LEWIS AIRPORT* CLOUDY    43  43 100 S5        29.64R
NORTHERLY ISL    N/A     35  35 100 CALM        N/A
$$

WIZ051-052-058>065-066-070>072-202300-
SOUTHEAST WISCONSIN

CITY           SKY/WX    TMP DP  RH WIND       PRES   REMARKS
MILWAUKEE      FOG       38  36  92 SE8       29.65R VSB 1/4
KENOSHA*       FOG       38  37  97 SE7       29.64R VSB<1/4
RACINE*        FOG       37  36  96 SE7       29.66R VSB 1/4
WAUKESHA       FOG       36  36 100 E7        29.64R VSB 0
$$

INZ001>003-010>013-019-020-202300-
NORTHWEST INDIANA

CITY           SKY/WX    TMP DP  RH WIND       PRES   REMARKS
GARY*          CLOUDY    45  43  93 CALM      29.65R FOG
MICHIGAN CITY* NOT AVBL
RENSSELAER*    NOT AVBL
VALPARAISO     FOG       46  45  96 SE5       29.64F VSB 3/4
$$

LMZ740>746-202300-
SOUTHERN LAKE MICHIGAN

STATION/POSITION TIME  SKY/WX   TEMP WIND        PRES    VSBY
                                AIR  DIR/SP/G
                 (UTC)          (F)  (DEG/KT/KT) (MB)    (MI)
HARRISON CRIB    2140            38  110/  8/  9   N/A
BURNHAM HARBOR   2200            35   CALM  /  2   N/A
CALUMET HARBOR   2130            36   70/  4/  5 1003.5R
BURNS HARBOR     2140            36   80/  5/  6 1004.7R
MICHIGAN CITY    2140            38   40/  3/  3   N/A
$$

ABBREVIATIONS USED IN REMARKS
   TC - TEMPERATURE IN CELSIUS
  WCI - WIND CHILL INDEX
   HX - HEAT INDEX
  VSB - VISIBILITY
$$



USA.gov is the U.S. government's official web portal to all federal, state and local government web resources and services.